This demonstration page uses our WeatherBlox Daily Observations layout. Learn more.

Left ArrowRight Arrow

36.17497, -115.13722

Hourly Observations for January 30, 2016

Temp ( °F °C ) Dew Point ( °F °C ) Humidity (%) Winds ( mph kmh ) Pressure ( in mb ) Visibility ( mi km ) Precip ( " mm )
12:53 am 00:53 Clear 50 10 27 -2.8 41 41 N 5 7 29.92 1013 10 16 N/A
1:53 am 01:53 Clear 50 10 26 -3.3 39 39 N 6 9 29.91 1013 10 16 N/A
2:53 am 02:53 Clear 47 8.3 26 -3.3 44 44 NNW 3 6 29.89 1012 10 16 N/A
3:53 am 03:53 Clear 46 7.8 26 -3.3 46 46 N N/A 29.86 1011 10 16 N/A
4:53 am 04:53 Clear 44 6.7 26 -3.3 49 49 NNW 5 7 29.83 1010 10 16 N/A
5:53 am 05:53 Clear 43 6.1 26 -3.3 51 51 NNE 3 6 29.83 1010 10 16 N/A
6:53 am 06:53 Sunny 45 7.2 26 -3.3 48 48 NW 3 6 29.85 1011 10 16 N/A
7:53 am 07:53 Sunny 48 8.9 26 -3.3 42 42 N 7 11 29.86 1011 10 16 N/A
8:53 am 08:53 Sunny 53 11.7 27 -2.8 37 37 NNE 7 11 29.85 1011 10 16 N/A
9:53 am 09:53 Sunny 57 13.9 27 -2.8 32 32 NE 5 7 29.84 1010 10 16 N/A
10:53 am 10:53 Sunny 58 14.4 31 -0.6 36 36 SE 3 6 29.83 1010 10 16 N/A
11:53 am 11:53 Mostly Sunny 61 16.1 30 -1.1 31 31 E 7 11 29.79 1009 10 16 N/A
12:53 pm 12:53 Sunny 65 18.3 30 -1.1 27 27 ENE 5 7 29.75 1008 10 16 N/A
1:53 pm 13:53 Sunny 67 19.4 30 -1.1 25 25 E 7 11 29.70 1006 10 16 N/A
2:53 pm 14:53 Sunny 72 22.2 33 0.6 24 24 VRB 5 7 29.70 1006 10 16 N/A
3:53 pm 15:53 Mostly Sunny 70 21.1 31 -0.6 23 23 VRB 3 6 29.72 1006 10 16 N/A
4:29 pm 16:29 Mostly Sunny 71 21.7 37 2.8 29 29 SW 17 28 29.59 1002 10 16 N/A
4:53 pm 16:53 Mostly Sunny 70 21.1 37 2.8 30 30 SW 15 24 29.73 1007 10 16 N/A
5:53 pm 17:53 Clear 68 20 38 3.3 33 33 WSW 17 28 29.74 1007 10 16 N/A
6:53 pm 18:53 Clear 66 18.9 38 3.3 36 36 WSW 15 24 29.76 1008 10 16 N/A
7:53 pm 19:53 Clear 61 16.1 34 1.1 36 36 NNW 14 22 29.80 1009 10 16 N/A
8:53 pm 20:53 Clear 58 14.4 33 0.6 39 39 N 14 22 29.84 1010 10 16 N/A
9:53 pm 21:53 Mostly Clear 56 13.3 33 0.6 42 42 NNE 8 13 29.86 1011 10 16 N/A
10:53 pm 22:53 Mostly Clear 54 12.2 32 undefined 43 43 N 14 22 29.87 1012 10 16 N/A
11:53 pm 23:53 Partly Cloudy 52 11.1 32 undefined 47 47 VRB 3 6 29.88 1012 10 16 N/A

Powered by AerisWeather